GLOBALSTAR M001 1 25162U 98008A 25347.02108748 -.00000059 00000+0 29101-3 0 9992 2 25162 52.0001 172.7077 0000245 296.1533 236.7210 12.38223470265867 GLOBALSTAR M004 1 25163U 98008B 25346.93745943 -.00000055 00000+0 27118-3 0 9998 2 25163 51.9993 228.8233 0003114 345.9850 26.3016 12.63411078284281 GLOBALSTAR M002 1 25164U 98008C 25346.73403612 -.00000051 00000+0 50156-3 0 9995 2 25164 51.9977 152.5252 0002662 105.2100 254.9015 11.61514740204816 GLOBALSTAR M003 1 25165U 98008D 25346.84904330 -.00000190 00000+0 -10725-2 0 9993 2 25165 51.9928 33.6818 0007679 292.8718 239.1702 12.12042877254885 GLOBALSTAR M014 1 25306U 98023A 25346.43124238 -.00000095 00000+0 -33863-3 0 9996 2 25306 51.9853 72.7592 0000302 2.4225 77.8598 11.65483661211954 GLOBALSTAR M006 1 25307U 98023B 25346.88039487 -.00000058 00000+0 35929-3 0 9990 2 25307 51.9915 130.7757 0004152 82.0328 34.8631 11.58178764237537 GLOBALSTAR M015 1 25308U 98023C 25347.00817523 -.00000076 00000+0 -61213-4 0 9998 2 25308 51.9813 237.1287 0013474 36.5225 336.4294 11.48862709214632 GLOBALSTAR M008 1 25309U 98023D 25346.88528347 -.00000088 00000+0 63518-4 0 9999 2 25309 51.9988 39.9579 0002912 184.1630 347.1480 12.36076662259945 GLOBALSTAR M023 1 25621U 99004A 25346.95152134 -.00000079 00000+0 13870-3 0 9996 2 25621 52.0096 229.0968 0010027 157.5388 216.4170 12.62510248238312 GLOBALSTAR M040 1 25622U 99004B 25347.01611534 -.00000091 00000+0 70563-4 0 9996 2 25622 51.9908 233.3180 0001851 65.6830 39.5442 12.62025077237836 GLOBALSTAR M036 1 25623U 99004C 25346.69506414 -.00000057 00000+0 37206-3 0 9998 2 25623 51.9948 129.8036 0010880 37.2875 335.8257 11.86618357200173 GLOBALSTAR M038 1 25624U 99004D 25346.99686686 -.00000071 00000+0 19952-3 0 9996 2 25624 51.9985 276.6162 0002522 61.4776 18.6442 12.32537323224420 GLOBALSTAR M022 1 25649U 99012A 25346.97594378 -.00000075 00000+0 14268-3 0 9995 2 25649 52.0008 164.8683 0003241 144.6547 17.4964 12.02508005197887 GLOBALSTAR M041 1 25650U 99012B 25346.88156896 -.00000089 00000+0 -43575-4 0 9996 2 25650 52.0037 52.0233 0000701 319.1958 40.8826 11.96681307199678 GLOBALSTAR M046 1 25651U 99012C 25346.60257744 -.00000216 00000+0 -14048-2 0 9994 2 25651 52.0047 109.5037 0001485 222.5601 151.2253 12.09416852205251 GLOBALSTAR M037 1 25652U 99012D 25347.01811495 -.00000038 00000+0 36580-3 0 9997 2 25652 52.0024 359.4447 0001861 217.9096 160.3163 12.62458330233867 GLOBALSTAR M045 1 25676U 99019A 25346.72666116 -.00000060 00000+0 29365-3 0 9993 2 25676 51.9937 156.3894 0001058 109.4633 263.8880 12.27070472215317 GLOBALSTAR M019 1 25677U 99019B 25347.03586582 -.00000015 00000+0 78036-3 0 9996 2 25677 51.9893 298.4617 0001581 342.0365 96.9017 12.13876207206860 GLOBALSTAR M044 1 25678U 99019C 25346.97352009 -.00000044 00000+0 54911-3 0 9992 2 25678 51.9977 272.3613 0006751 26.1229 53.4443 11.90261318192617 GLOBALSTAR M042 1 25679U 99019D 25346.93975949 -.00000024 00000+0 63972-3 0 9998 2 25679 52.0020 266.3276 0002929 324.1577 113.7919 12.22093937207113 GLOBALSTAR M025 1 25770U 99031A 25346.77329495 -.00000051 00000+0 51379-3 0 9993 2 25770 51.9809 105.5605 0003054 92.4115 56.3143 11.22558782501763 GLOBALSTAR M049 1 25771U 99031B 25346.85345537 -.00000105 00000+0 -13901-2 0 9997 2 25771 51.9841 149.1179 0002155 337.6974 22.3729 11.12123992137306 GLOBALSTAR M047 1 25772U 99031C 25346.88369486 -.00000060 00000+0 25334-3 0 9993 2 25772 51.9809 128.9451 0016188 205.6441 154.3563 11.31931728491347 GLOBALSTAR M052 1 25773U 99031D 25346.98378484 -.00000103 00000+0 -12405-2 0 9996 2 25773 51.9866 254.9845 0003263 93.2185 349.8143 11.15062505498458 GLOBALSTAR M035 1 25851U 99037A 25346.79416064 -.00000103 00000+0 -14845-2 0 9995 2 25851 51.9980 16.6524 0013535 270.4348 261.5422 11.04540506115997 GLOBALSTAR M032 1 25852U 99037B 25346.88943174 -.00000059 00000+0 26278-3 0 9996 2 25852 51.9916 189.3123 0013727 105.4235 254.8082 11.19075059154795 GLOBALSTAR M051 1 25853U 99037C 25346.93046376 -.00000110 00000+0 -93960-3 0 9992 2 25853 51.9825 329.6945 0000100 64.6056 295.4765 11.42203644152813 GLOBALSTAR M030 1 25854U 99037D 25346.69077518 -.00000048 00000+0 56816-3 0 9996 2 25854 51.9862 125.0246 0003353 28.6460 331.4541 11.55110052170670 GLOBALSTAR M048 1 25872U 99041A 25346.99186676 -.00000061 00000+0 25188-3 0 9993 2 25872 51.9376 271.4941 0013313 130.5807 312.0140 11.33860849145262 GLOBALSTAR M026 1 25873U 99041B 25346.67947987 .00000001 00000+0 23935-2 0 9999 2 25873 51.9984 132.9819 0001890 168.2258 204.6120 11.06849199168251 GLOBALSTAR M043 1 25874U 99041C 25346.40157272 -.00000044 00000+0 70786-3 0 9996 2 25874 51.9430 27.6377 0013449 252.7762 203.0903 11.25696729142949 GLOBALSTAR M028 1 25875U 99041D 25346.78303486 -.00000097 00000+0 24688-4 0 9997 2 25875 51.9643 20.5181 0063583 99.4929 261.3125 12.50592498212528 GLOBALSTAR M024 1 25883U 99043A 25347.00769554 -.00000104 00000+0 -13818-2 0 9997 2 25883 52.0046 337.1395 0001619 26.1251 6.0018 11.10166806134722 GLOBALSTAR M027 1 25884U 99043B 25346.89592188 -.00000071 00000+0 -26640-3 0 9992 2 25884 52.0232 60.4357 0020958 278.9035 80.9386 11.04372130160986 GLOBALSTAR M054 1 25885U 99043C 25346.87845488 -.00000044 00000+0 69988-3 0 9996 2 25885 52.0100 157.7862 0005971 118.2519 30.6993 11.39224821139414 GLOBALSTAR M053 1 25886U 99043D 25346.88324696 -.00000050 00000+0 53068-3 0 9990 2 25886 51.9971 114.7830 0003635 45.4877 99.2750 11.27669000139602 GLOBALSTAR M058 1 25907U 99049A 25346.73956158 -.00000083 00000+0 19874-4 0 9992 2 25907 51.9968 352.3896 0001732 256.1554 103.9088 11.93206714562859 GLOBALSTAR M050 1 25908U 99049B 25347.01371542 -.00000138 00000+0 -56202-3 0 9990 2 25908 52.0011 345.9732 0009271 28.5422 2.0129 12.07461886169799 GLOBALSTAR M033 1 25909U 99049C 25346.99418118 -.00000027 00000+0 62520-3 0 9994 2 25909 51.9886 205.5100 0013122 274.0432 85.8916 12.20294397557573 GLOBALSTAR M055 1 25910U 99049D 25346.95467411 -.00000058 00000+0 30958-3 0 9996 2 25910 51.9995 207.6632 0007555 134.5615 225.5854 12.29437916190274 GLOBALSTAR M057 1 25943U 99058A 25346.99456199 -.00000045 00000+0 43649-3 0 9994 2 25943 51.9959 200.7469 0003231 37.4378 322.6696 12.24831927188844 GLOBALSTAR M059 1 25944U 99058B 25347.03757179 -.00000077 00000+0 11546-3 0 9999 2 25944 52.0027 83.3189 0000549 117.7725 53.4329 11.99988137595519 GLOBALSTAR M056 1 25945U 99058C 25346.73880628 -.00000131 00000+0 -50715-3 0 9995 2 25945 51.9971 81.5101 0001488 156.6371 11.2816 12.04781184184148 GLOBALSTAR M031 1 25946U 99058D 25347.01913205 -.00000007 00000+0 84304-3 0 9998 2 25946 51.9979 322.3627 0001082 175.0992 228.4063 12.16044819186306 GLOBALSTAR M039 1 25961U 99062A 25346.95307139 -.00000055 00000+0 27348-3 0 9993 2 25961 51.9851 84.2225 0002625 41.4935 318.6130 12.62339242202794 GLOBALSTAR M034 1 25962U 99062B 25347.02609109 -.00000047 00000+0 54573-3 0 9996 2 25962 51.9877 266.5083 0014989 21.2165 63.1617 11.79453679159495 GLOBALSTAR M029 1 25963U 99062C 25346.93974697 -.00000089 00000+0 -37164-4 0 9998 2 25963 51.9832 331.4681 0002548 102.5885 272.9431 11.99903754190588 GLOBALSTAR M061 1 25964U 99062D 25346.77557425 -.00000089 00000+0 -14144-3 0 9999 2 25964 51.9792 93.5621 0005026 300.3575 221.2094 11.76778136142209 GLOBALSTAR M063 1 26081U 00008A 25346.82972646 -.00000080 00000+0 44917-4 0 9996 2 26081 51.9970 1.0871 0004511 297.6035 233.6026 11.86179056178776 GLOBALSTAR M062 1 26082U 00008B 25346.96426539 -.00000110 00000+0 -81546-4 0 9991 2 26082 51.9865 290.0475 0007204 128.3452 260.7272 12.43479071518861 GLOBALSTAR M060 1 26083U 00008C 25347.01628183 -.00000069 00000+0 21793-3 0 9997 2 26083 52.0021 275.2042 0003474 114.8404 327.9977 12.17670315174158 GLOBALSTAR M064 1 26084U 00008D 25346.60232895 -.00000062 00000+0 30187-3 0 9993 2 26084 52.0032 98.4107 0001906 70.7263 289.3776 11.88539518188316 GLOBALSTAR M065 1 31571U 07020A 25346.92517913 -.00000095 00000+0 50618-4 0 9991 2 31571 51.9916 42.2402 0009567 346.3861 184.6321 12.62015745855974 GLOBALSTAR M069 1 31573U 07020C 25346.94754530 -.00000064 00000+0 26188-3 0 9993 2 31573 52.0047 59.2545 0002450 126.5181 44.7596 12.23464422856008 GLOBALSTAR M072 1 31574U 07020D 25347.01748573 -.00000074 00000+0 13615-3 0 9995 2 31574 51.9921 235.8813 0001201 1.2177 102.2399 11.91654230852789 GLOBALSTAR M071 1 31576U 07020F 25347.01451745 -.00000126 00000+0 -34181-3 0 9999 2 31576 52.0070 89.7243 0001707 116.0937 54.7018 12.18262990516730 GLOBALSTAR M067 1 32263U 07048A 25347.01050442 -.00000080 00000+0 12997-3 0 9991 2 32263 51.9717 232.6759 0001839 34.6152 338.7962 12.40682852831686 GLOBALSTAR M070 1 32264U 07048B 25346.63194378 -.00000074 00000+0 16457-3 0 9994 2 32264 51.9765 304.8833 0000350 67.6906 102.8173 12.62327264836209 GLOBALSTAR M066 1 32265U 07048C 25346.95134961 -.00000080 00000+0 12328-3 0 9992 2 32265 51.9580 232.5427 0005520 21.7481 351.4765 12.30383041837305 GLOBALSTAR M068 1 32266U 07048D 25346.80986491 -.00000057 00000+0 25921-3 0 9997 2 32266 51.9872 117.7475 0001773 141.0031 12.0870 12.62835142840120 GLOBALSTAR M079 1 37188U 10054A 25346.97538253 -.00000088 00000+0 87154-4 0 9994 2 37188 52.0056 315.5266 0000493 17.5473 48.1709 12.62269132699038 GLOBALSTAR M074 1 37189U 10054B 25346.91214546 -.00000085 00000+0 10549-3 0 9995 2 37189 52.0038 315.0140 0000590 53.1349 324.7831 12.62264110699637 GLOBALSTAR M076 1 37190U 10054C 25346.94247163 -.00000084 00000+0 11001-3 0 9994 2 37190 52.0046 315.1101 0000661 37.7792 356.8613 12.62268042699356 GLOBALSTAR M077 1 37191U 10054D 25346.88158852 -.00000073 00000+0 89590-4 0 9991 2 37191 51.9991 292.5385 0001004 19.5955 353.4197 11.68176681699371 GLOBALSTAR M075 1 37192U 10054E 25347.03090382 -.00000085 00000+0 10400-3 0 9999 2 37192 51.9968 356.9963 0000295 88.0932 290.2117 12.62270450698430 GLOBALSTAR M073 1 37193U 10054F 25346.18860751 -.00000084 00000+0 10830-3 0 9996 2 37193 52.0069 273.5198 0000786 40.6486 106.0602 12.62265121700315 GLOBALSTAR M083 1 37739U 11033A 25346.98433080 -.00000093 00000+0 62424-4 0 9996 2 37739 51.9842 219.5811 0000895 63.1814 43.1733 12.62265568669434 GLOBALSTAR M088 1 37740U 11033B 25346.89268920 -.00000087 00000+0 91295-4 0 9998 2 37740 52.0198 125.8336 0001026 111.0079 57.9546 12.62271046664962 GLOBALSTAR M091 1 37741U 11033C 25346.49064398 -.00000091 00000+0 68877-4 0 9993 2 37741 52.0013 90.2996 0000704 134.7755 305.5866 12.62266222665701 GLOBALSTAR M085 1 37742U 11033D 25346.89305729 -.00000095 00000+0 48516-4 0 9996 2 37742 52.0144 40.2038 0000337 154.5605 16.0601 12.62267292666266 GLOBALSTAR M081 1 37743U 11033E 25346.91949975 -.00000095 00000+0 47061-4 0 9991 2 37743 51.9977 42.7703 0000305 114.9873 56.4533 12.62270833666411 GLOBALSTAR M089 1 37744U 11033F 25347.00518744 -.00000075 00000+0 16038-3 0 9996 2 37744 51.9953 356.7043 0000572 72.7214 308.8497 12.62262284667276 GLOBALSTAR M084 1 38040U 11080A 25346.93749047 -.00000093 00000+0 62411-4 0 9998 2 38040 51.9997 224.2949 0001255 70.1621 302.5553 12.62266566645245 GLOBALSTAR M080 1 38041U 11080B 25347.00892722 -.00000087 00000+0 91535-4 0 9999 2 38041 52.0044 225.7310 0000667 98.0149 9.4598 12.62264813645378 GLOBALSTAR M082 1 38042U 11080C 25347.03818694 -.00000083 00000+0 11846-3 0 9991 2 38042 52.0045 181.1225 0000860 101.8835 68.2439 12.62266200646088 GLOBALSTAR M092 1 38043U 11080D 25346.99217796 -.00000089 00000+0 85101-4 0 9994 2 38043 52.0090 271.6495 0000730 60.4622 20.0762 12.62268319644539 GLOBALSTAR M090 1 38044U 11080E 25346.98264127 -.00000084 00000+0 11211-3 0 9999 2 38044 52.0093 175.1877 0000932 86.0345 70.4835 12.62265436646196 GLOBALSTAR M086 1 38045U 11080F 25346.92655973 -.00000078 00000+0 14273-3 0 9991 2 38045 51.9866 175.5913 0001388 37.9337 113.2684 12.62281062646135 GLOBALSTAR M097 1 39072U 13005A 25347.00060565 -.00000104 00000+0 -37137-5 0 9995 2 39072 52.0048 90.1024 0000576 109.9718 250.1211 12.62267784593397 GLOBALSTAR M093 1 39073U 13005B 25346.97451934 -.00000097 00000+0 35549-4 0 9999 2 39073 52.0110 83.4590 0000337 117.1356 242.9545 12.62271060593341 GLOBALSTAR M094 1 39074U 13005C 25346.73681525 -.00000092 00000+0 67247-4 0 9990 2 39074 51.9976 358.4859 0000133 19.9019 340.1853 12.62265321594923 GLOBALSTAR M096 1 39075U 13005D 25346.59150612 -.00000090 00000+0 77036-4 0 9998 2 39075 52.0089 47.5806 0000285 144.3817 215.7069 12.62269355593821 GLOBALSTAR M078 1 39076U 13005E 25346.72389340 -.00000088 00000+0 88321-4 0 9992 2 39076 51.9855 131.4471 0000977 162.2493 197.8407 12.62272436592468 GLOBALSTAR M095 1 39077U 13005F 25346.82930768 -.00000089 00000+0 85063-4 0 9991 2 39077 52.0060 128.4647 0000636 127.8405 232.2519 12.62267272592338 GLOBALSTAR M087 1 52888U 22064A 25347.00070357 -.00000079 00000+0 13831-3 0 9993 2 52888 52.0004 269.2888 0000577 43.9066 316.1847 12.62261371167627